Weather Roundup
Issued by NWS

Home | Current Version | Previous Version | Text Only | Print | Product List | Glossary On
Versions: 1 2 3 4 5 6 7 8 9 10 11 12 13 14 15 16 17 18 19 20 21 22 23 24 25 26 27 28 29 30 31 32 33 34 35 36 37 38 39 40 41 42 43 44 45 46 47 48 49 50
000
NZUS93 KARX 241210
HRRWXR

CURRENT HOURLY OBSERVATIONS ACROSS
MUCH OF THE UPPER MISSISSIPPI VALLEY
NATIONAL WEATHER SERVICE LA CROSSE WI
700 AM CDT SUN JUL 24 2016


...SOUTHEAST MINNESOTA...


CITY           SKY/WX    TMP DP  RH WIND       PRES   REMARKS
ROCHESTER      CLOUDY    76  75  97 W9        29.82R FOG
ROCHESTER/MAYO CLOUDY    76  76 100 W7        29.81S
WINONA         PTSUNNY   75  72  88 CALM      29.78R
AUSTIN         CLOUDY    75  73  94 W5        29.82R
ALBERT LEA     CLOUDY    75  73  94 NW6       29.83R FOG
DODGE CENTER   CLOUDY    75  75 100 NW14G21   29.82R FOG
PRESTON        SUNNY     75  72  91 SW7       29.81S
OWATONNA       CLOUDY    75  72  88 NW6       29.83R
FARIBAULT      MOSUNNY   73  70  88 NW5       29.83R
$$

...ELSEWHERE IN MINNESOTA...


CITY           SKY/WX    TMP DP  RH WIND       PRES   REMARKS
MINNEAPOLIS    PTSUNNY   73  69  87 NW6       29.81R
INTNL FALLS    MOSUNNY   68  64  87 W15       29.71R
DULUTH         MOSUNNY   66  66 100 W9        29.76R
RED WING       CLOUDY    77  73  88 CALM      29.77S
REDWOOD FALLS  CLEAR     69  66  90 NW9       29.88R
MANKATO        CLEAR     72  66  83 NW7       29.85R
WORTHINGTON    CLEAR     68  62  81 NW8       29.93R
FAIRMONT       CLEAR     72  48  43 NW13      29.86R
$$

...SOUTHWEST WISCONSIN...


CITY           SKY/WX    TMP DP  RH WIND       PRES   REMARKS
LA CROSSE      MOSUNNY   77  74  90 S5        29.78R
PRAIRIE DU CHI MOSUNNY   79  75  87 CALM      29.80S
BOSCOBEL       MOSUNNY   80  77  90 SW6       29.80S
LONE ROCK      CLOUDY    77  74  90 SW3       29.82S
PLATTEVILLE    MOSUNNY   76  76 100 S7        29.85S
FORT MC COY    PTSUNNY   74  73  96 CALM      29.81R
CAMP DOUGLAS   CLOUDY    75  73  94 S5        29.80S
MAUSTON-NEW LI CLOUDY    76  74  95 S7        29.80S FOG
VIROQUA        FAIR      75  75 100 SW5       29.82S
WIS DELLS      CLOUDY    74  72  91 SW7       29.82S
$$

...ELSEWHERE IN WISCONSIN...


CITY           SKY/WX    TMP DP  RH WIND       PRES   REMARKS
MILWAUKEE      CLOUDY    75  71  87 S6        29.88R
MADISON        CLOUDY    75  72  90 S8        29.83S
GREEN BAY      CLOUDY    72  72 100 S6        29.84R
EAU CLAIRE     CLOUDY    70  70 100 E5        29.77F FOG
BLACK RVR FLS  LGT RAIN  72  72 100 CALM      29.79S
MEDFORD        FOG       69  69 100 CALM      29.81R VSB 1/4
WAUSAU         FOG       70  70 100 SE7       29.79F VSB 1
WIS RAPIDS     CLOUDY    74  71  91 S5        29.81F FOG
MARSHFIELD     FOG       72  70  93 S6        29.80F VSB 1/4
RICE LAKE      SUNNY     68  65  93 CALM      29.81R
$$

...NORTHEAST IOWA...


CITY           SKY/WX    TMP DP  RH WIND       PRES   REMARKS
WATERLOO       SUNNY     78  74  87 SW7       29.81R
DUBUQUE        SUNNY     76  75  97 S10       29.84F
DECORAH        SUNNY     77  77 100 VRB5      29.81S
MASON CITY     CLOUDY    77  75  93 NW14      29.85R
CHARLES CITY   SUNNY     77  77 100 SW6       29.82S
OELWEIN        MOSUNNY   77  75  94 SW8       29.84R
$$

...ELSEWHERE IN IOWA...


CITY           SKY/WX    TMP DP  RH WIND       PRES   REMARKS
DES MOINES     PTCLDY    80  74  81 W5        29.84R
IOWA CITY      SUNNY     80  77  90 S7        29.85F
FORT DODGE     CLEAR     75  72  88 N6        29.87R
MARSHALLTOWN   CLEAR     77  76  96 SW3       29.83S
CEDAR RAPIDS   SUNNY     79  79 100 S8        29.83S
$$

...NORTHERN ILLINOIS...


CITY           SKY/WX    TMP DP  RH WIND       PRES   REMARKS
CHICAGO-OHARE  MOSUNNY   73  70  90 S12       29.91R
CHICAGO-MIDWAY PTSUNNY   74  69  85 S8        29.91S
MOLINE         SUNNY     81  75  82 S8        29.85S
ROCKFORD       MOSUNNY   76  70  82 S6        29.89R
PEORIA         SUNNY     78  76  93 S7        29.90F
$$

NOTE: "FAIR" INDICATES FEW OR NO CLOUDS BELOW 12,000 FEET WITH NO
SIGNIFICANT WEATHER AND/OR OBSTRUCTIONS TO VISIBILITY. WIND
SPEEDS ARE IN MILES-PER-HOUR.




USA.gov is the U.S. government's official web portal to all federal, state and local government web resources and services.